Regional Weather Roundup
Issued by NWS

Home | Current Version | Previous Version | Text Only | Print | Product List | Glossary On
Versions: 1 2 3 4 5 6 7 8 9 10 11 12 13 14 15 16 17 18 19 20 21 22 23 24 25 26 27 28 29 30 31 32 33 34 35 36 37 38 39 40 41 42 43 44 45 46 47 48 49 50
000
ASUS43 KDMX 192307
RWRIA

WEATHER ROUNDUP FOR IOWA
NATIONAL WEATHER SERVICE DES MOINES IA
500 PM CST FRI DEC 19 2014

NOTE: "FAIR" INDICATES FEW OR NO CLOUDS BELOW 12,000 FEET WITH NO
SIGNIFICANT WEATHER AND/OR OBSTRUCTIONS TO VISIBILITY.

* - THESE STATIONS ARE NOT NWS STATIONS...THUS NOT UNDER NWS
QUALITY CONTROL.  THEY ALSO DO NOT REPORT WEATHER SUCH
AS PRECIPITATION OR FOG.

IAZ001>003-012>014-020>022-031>034-043>046-200000-
   NORTHWEST IOWA

CITY           SKY/WX    TMP DP  RH WIND       PRES   REMARKS
CARROLL *      CLOUDY    32  30  93 S8        30.17S WCI  25
CHEROKEE *     CLOUDY    32  28  86 S8        30.14S WCI  25
DENISON *      CLOUDY    32  32 100 S9        30.14S WCI  24
LE MARS *      CLOUDY    32  28  86 S14G20    30.13S WCI  22
ORANGE CITY *  CLOUDY    34  28  80 S13       30.11S WCI  25
SHELDON *      CLOUDY    32  30  93 S15G23    30.11S WCI  22
SIOUX CITY     CLOUDY    34  28  79 S14       30.14S WCI  25
SPENCER        CLOUDY    33  28  81 S10       30.14S WCI  25
STORM LAKE *   CLOUDY    32  28  86 S14       30.15S WCI  22
$$

IAZ055>058-069>071-079>083-090>094-200000-
   SOUTHWEST IOWA

CITY           SKY/WX    TMP DP  RH WIND       PRES   REMARKS
ATLANTIC *     CLOUDY    30  30 100 S10       30.17S WCI  21
AUDUBON *      MOCLDY    30  27  86 S7        30.17F HAZE    WCI  23
CLARINDA *     CLOUDY    30  30 100 S7G13     30.21S WCI  23
COUNCIL BLFS * CLOUDY    30  30 100 S8        30.14F WCI  23
CRESTON *      CLOUDY    30  30 100 S8        30.18F FOG     WCI  23
HARLAN  *      CLOUDY    32  32 100 S9        30.19F WCI  24
LAMONI         CLOUDY    31  29  92 S6        30.19F WCI  25
RED OAK *      CLOUDY    30  28  93 S7        30.18F WCI  23
SHENANDOAH *   CLOUDY    30  28  93 S6        30.20S WCI  24
$$

IAZ047>049-059>061-072>074-084-200000-
   CENTRAL IOWA

CITY           SKY/WX    TMP DP  RH WIND       PRES   REMARKS
AMES           CLOUDY    30  26  85 SE9       30.21S WCI  22
ANKENY *       CLOUDY    32  28  86 SE6       30.22S WCI  26
CHARITON *     CLOUDY    32  30  93 SE7       30.20F FOG     WCI  26
DES MOINES     CLOUDY    33  28  81 SE6       30.21F WCI  28
GRINNELL*      CLOUDY    30  27  86 SE6       30.23F WCI  24
KNOXVILLE *    CLOUDY    32  27  80 SE6       30.20F WCI  26
MARSHALLTOWN   CLOUDY    30  25  81 SE7       30.22S WCI  23
PELLA *        CLOUDY    30  27  86 SE7       30.24F WCI  23
PERRY *        CLOUDY    32  32 100 SE6       30.19F WCI  26
$$

IAZ004>006-015-016-023>025-035-036-200000-
   NORTH CENTRAL IOWA

CITY           SKY/WX    TMP DP  RH WIND       PRES   REMARKS
ALGONA *       CLOUDY    32  30  93 S12       30.18S WCI  23
CLARION *      CLOUDY    30  30 100 S10       30.20S WCI  21
ESTHERVILLE    CLOUDY    31  29  92 S13       30.14F FOG     WCI  21
FORT DODGE *   CLOUDY    32  27  80 S6        30.19S WCI  26
MASON CITY     CLOUDY    30  27  88 SE10      30.22R WCI  21
FOREST CITY *  CLOUDY    32  28  86 SE9       30.19S WCI  24
IOWA FALLS *   CLOUDY    30  27  86 SE10      30.21F WCI  21
$$

IAZ007>011-017>019-026>030-037>042-050>054-066-200000-
   NORTHEAST IOWA

CITY           SKY/WX    TMP DP  RH WIND       PRES   REMARKS
CEDAR RAPIDS   CLOUDY    29  22  75 S6        30.25F WCI  23
CHARLES CITY * CLOUDY    28  27  93 SE10      30.23F WCI  19
CLINTON *      CLOUDY    28  21  74 E5        30.32F WCI  23
DECORAH *      CLOUDY    28  21  74 SE5       30.24S WCI  23
DUBUQUE        CLOUDY    27  20  75 S7        30.28S WCI  19
MONTICELLO *   CLOUDY    28  25  86 E5        30.27F WCI  23
OELWEIN *      CLOUDY    28  23  80 SE9       30.25F WCI  20
WATERLOO       CLOUDY    30  23  75 SE9       30.24F WCI  22
$$

IAZ064-065-067-068-078-200000-
   EAST CENTRAL IOWA

CITY           SKY/WX    TMP DP  RH WIND       PRES   REMARKS
DAVENPORT      MOCLDY    29  19  66 E6        30.28F WCI  23
IOWA CITY      CLOUDY    30  21  69 SE6       30.28F WCI  24
MT. PLEASANT * CLOUDY    30  25  80 CALM      30.27S
MUSCATINE *    CLOUDY    32  21  64 CALM      30.28F
QUAD CITIES    MOCLDY    29  20  69 E7        30.27F WCI  22
$$

IAZ062-063-075>077-085>089-095>099-200000-
   SOUTHEAST IOWA

CITY           SKY/WX    TMP DP  RH WIND       PRES   REMARKS
BURLINGTON     CLOUDY    33  24  69 CALM      30.27S
FAIRFIELD *    CLOUDY    30  25  80 E7        30.25F WCI  23
FORT MADISON * CLOUDY    34  28  80 CALM      30.27S
KEOKUK *       CLOUDY    32  27  80 CALM      30.26S
OSKALOOSA *    CLOUDY    30  27  86 E7        30.24F WCI  23
CENTERVILLE *  CLOUDY    32  32 100 E5        30.23S WCI  27
OTTUMWA        CLOUDY    30  25  81 SE8       30.23F WCI  22
WASHINGTON *   CLOUDY    30  28  93 SE5       30.26F WCI  25
$$

ABBREVIATIONS USED IN REMARKS
   TC - TEMPERATURES IN CELSIUS
  WCI - WIND CHILL INDEX
   HX - HEAT INDEX
  VSB - VISIBILITY
$$




USA.gov is the U.S. government's official web portal to all federal, state and local government web resources and services.